Location: Spring Creek
(38.2870°N, 100.2160°W)
Time: 07:06:13
(UTC+00:00)

Meteor 2-15 - Pass Details

Date: 08 May 2021
Orbit: 937 x 954 km, 82.5° (Epoch: 21 June)

Event Time Altitude Azimuth Distance (km) Brightness Sun altitude
Rises 02:10:02 0° 182° (S) 3,580 7.2 -6.5°
Reaches altitude 10° 02:12:30 10° 181° (S) 2,640 6.5 -6.9°
Maximum altitude 02:18:31 79° 96° (E) 959 4.4 -7.9°
Drops below altitude 10° 02:24:36 10° 10° (N) 2,663 7.1 -9.0°
Sets 02:27:06 0° 9° (N) 3,614 7.8 -9.4°
